• In Russia
  • List of Countries
  • For 7 days
  • Water Temperature
  • Satellite Maps
  • Weather Map
  • Weather Widgets
  • user-avatar
    Login

    Hourly Weather Sydney

    Today, 1 May, Monday

    Time Temperature Precipitation Wind Pressure Humidity
    00:00 +13°C° 0 mm 1 mps 764 mmHg 97%
    01:00 +13°C° 0 mm 2 mps 764 mmHg 97%
    02:00 +12°C° 0 mm 2 mps 764 mmHg 98%
    03:00 +12°C° 0 mm 2 mps 764 mmHg 98%
    04:00 +12°C° 0 mm 2 mps 764 mmHg 97%
    05:00 +12°C° 0 mm 2 mps 764 mmHg 97%
    06:00 +12°C° 0 mm 2 mps 764 mmHg 97%
    07:00 +12°C° 0 mm 2 mps 764 mmHg 96%
    08:00 +14°C° 0 mm 3 mps 763 mmHg 85%
    09:00 +18°C° 0 mm 3 mps 763 mmHg 73%
    10:00 +21°C° 0 mm 4 mps 763 mmHg 62%
    11:00 +22°C° 0 mm 4 mps 762 mmHg 54%
    12:00 +25°C° 0 mm 4 mps 762 mmHg 47%
    13:00 +26°C° 0 mm 4 mps 761 mmHg 40%
    14:00 +26°C° 0 mm 4 mps 761 mmHg 42%
    15:00 +26°C° 0 mm 4 mps 761 mmHg 43%
    16:00 +25°C° 0 mm 4 mps 760 mmHg 45%
    17:00 +22°C° 0 mm 4 mps 761 mmHg 50%
    18:00 +20°C° 0 mm 4 mps 761 mmHg 55%
    19:00 +18°C° 0 mm 4 mps 761 mmHg 59%
    20:00 +17°C° 0 mm 4 mps 761 mmHg 62%
    21:00 +15°C° 0 mm 4 mps 762 mmHg 64%
    22:00 +14°C° 0 mm 3 mps 762 mmHg 67%
    23:00 +14°C° 0 mm 3 mps 762 mmHg 68%

    Tomorrow, 2 May, Tuesday

    Time Temperature Precipitation Wind Pressure Humidity
    00:00 +13°C° 0 mm 3 mps 761 mmHg 70%
    01:00 +13°C° 0 mm 3 mps 761 mmHg 72%
    02:00 +13°C° 0 mm 3 mps 761 mmHg 72%
    03:00 +12°C° 0 mm 3 mps 761 mmHg 72%
    04:00 +12°C° 0 mm 3 mps 761 mmHg 73%
    05:00 +12°C° 0 mm 3 mps 761 mmHg 73%
    06:00 +13°C° 0 mm 2 mps 762 mmHg 73%
    07:00 +14°C° 0 mm 2 mps 762 mmHg 73%
    08:00 +17°C° 0 mm 2 mps 762 mmHg 63%
    09:00 +20°C° 0 mm 2 mps 762 mmHg 54%
    10:00 +24°C° 0 mm 2 mps 762 mmHg 44%
    11:00 +25°C° 0 mm 1 mps 762 mmHg 41%
    12:00 +26°C° 0 mm 1 mps 761 mmHg 38%
    13:00 +27°C° 0 mm 1 mps 761 mmHg 35%
    14:00 +26°C° 0 mm 1 mps 761 mmHg 41%
    15:00 +24°C° 0 mm 2 mps 761 mmHg 48%
    16:00 +23°C° 0 mm 2 mps 761 mmHg 55%
    17:00 +21°C° 0 mm 3 mps 761 mmHg 59%
    18:00 +20°C° 0 mm 3 mps 762 mmHg 63%
    19:00 +18°C° 0 mm 3 mps 763 mmHg 67%
    20:00 +18°C° 0.1 mm 3 mps 763 mmHg 70%
    21:00 +17°C° 0.1 mm 4 mps 764 mmHg 73%
    22:00 +16°C° 0.1 mm 5 mps 764 mmHg 76%
    23:00 +16°C° 0.2 mm 5 mps 765 mmHg 79%

    Day after tomorrow, 3 May, Wednesday

    Time Temperature Precipitation Wind Pressure Humidity
    00:00 +15°C° 0.2 mm 6 mps 765 mmHg 82%
    01:00 +15°C° 0.2 mm 7 mps 765 mmHg 84%
    02:00 +15°C° 0.2 mm 7 mps 766 mmHg 82%
    03:00 +15°C° 0.2 mm 7 mps 766 mmHg 80%
    04:00 +15°C° 0.2 mm 7 mps 766 mmHg 78%
    05:00 +14°C° 0.1 mm 6 mps 767 mmHg 78%
    06:00 +14°C° 0.1 mm 6 mps 768 mmHg 78%
    07:00 +13°C° 0.1 mm 6 mps 768 mmHg 78%
    08:00 +14°C° 0.2 mm 6 mps 769 mmHg 76%
    09:00 +14°C° 0.2 mm 6 mps 769 mmHg 74%
    10:00 +15°C° 0.2 mm 6 mps 770 mmHg 71%
    11:00 +15°C° 0.2 mm 6 mps 769 mmHg 69%
    12:00 +16°C° 0.2 mm 6 mps 769 mmHg 67%
    13:00 +16°C° 0.2 mm 6 mps 769 mmHg 64%
    14:00 +17°C° 0.1 mm 6 mps 769 mmHg 64%
    15:00 +17°C° 0.1 mm 6 mps 769 mmHg 64%
    16:00 +17°C° 0.1 mm 6 mps 769 mmHg 64%
    17:00 +16°C° 0 mm 5 mps 770 mmHg 69%
    18:00 +15°C° 0 mm 5 mps 770 mmHg 74%
    19:00 +14°C° 0 mm 4 mps 771 mmHg 79%
    20:00 +13°C° 0.1 mm 4 mps 771 mmHg 81%
    21:00 +13°C° 0.1 mm 4 mps 772 mmHg 84%
    22:00 +12°C° 0.1 mm 3 mps 772 mmHg 87%
    23:00 +12°C° 0.2 mm 3 mps 772 mmHg 88%

    4 May, Thursday

    Time Temperature Precipitation Wind Pressure Humidity
    00:00 +11°C° 0.2 mm 3 mps 772 mmHg 90%
    01:00 +11°C° 0.2 mm 3 mps 772 mmHg 92%
    02:00 +11°C° 0.2 mm 3 mps 772 mmHg 90%
    03:00 +12°C° 0.2 mm 3 mps 772 mmHg 88%
    04:00 +12°C° 0.2 mm 3 mps 772 mmHg 87%
    05:00 +12°C° 0.2 mm 3 mps 772 mmHg 86%
    06:00 +13°C° 0.2 mm 3 mps 772 mmHg 86%
    07:00 +13°C° 0.2 mm 3 mps 773 mmHg 85%
    08:00 +14°C° 0.3 mm 3 mps 773 mmHg 83%
    09:00 +14°C° 0.3 mm 3 mps 773 mmHg 81%
    10:00 +16°C° 0.3 mm 3 mps 773 mmHg 79%
    11:00 +16°C° 0.4 mm 3 mps 773 mmHg 79%
    12:00 +16°C° 0.4 mm 3 mps 773 mmHg 79%
    13:00 +16°C° 0.4 mm 3 mps 772 mmHg 80%
    14:00 +16°C° 0.2 mm 2 mps 772 mmHg 80%
    15:00 +16°C° 0.2 mm 2 mps 772 mmHg 81%
    16:00 +16°C° 0.2 mm 2 mps 772 mmHg 81%
    17:00 +16°C° 0.2 mm 2 mps 772 mmHg 84%
    18:00 +15°C° 0.2 mm 2 mps 773 mmHg 86%
    19:00 +14°C° 0.2 mm 2 mps 773 mmHg 89%
    20:00 +14°C° 0 mm 2 mps 773 mmHg 89%
    21:00 +14°C° 0 mm 2 mps 774 mmHg 90%
    22:00 +14°C° 0 mm 2 mps 774 mmHg 90%
    23:00 +14°C° 0 mm 2 mps 773 mmHg 90%

    5 May, Friday

    Time Temperature Precipitation Wind Pressure Humidity
    00:00 +14°C° 0 mm 2 mps 773 mmHg 90%
    01:00 +14°C° 0 mm 2 mps 773 mmHg 90%
    02:00 +14°C° 0.1 mm 2 mps 773 mmHg 91%
    03:00 +14°C° 0.1 mm 2 mps 772 mmHg 92%
    04:00 +13°C° 0.1 mm 2 mps 772 mmHg 92%
    05:00 +12°C° 0.2 mm 3 mps 773 mmHg 92%
    06:00 +13°C° 0.2 mm 3 mps 773 mmHg 92%
    07:00 +13°C° 0.2 mm 3 mps 773 mmHg 92%
    08:00 +14°C° 0.4 mm 3 mps 773 mmHg 88%
    09:00 +17°C° 0.4 mm 3 mps 773 mmHg 83%
    10:00 +18°C° 0.4 mm 3 mps 773 mmHg 78%
    11:00 +19°C° 0.4 mm 3 mps 773 mmHg 76%
    12:00 +20°C° 0.4 mm 3 mps 772 mmHg 73%
    13:00 +21°C° 0.4 mm 3 mps 771 mmHg 70%
    14:00 +20°C° 0.3 mm 3 mps 771 mmHg 72%
    15:00 +20°C° 0.3 mm 3 mps 771 mmHg 73%
    16:00 +20°C° 0.3 mm 4 mps 771 mmHg 74%
    17:00 +18°C° 0.1 mm 4 mps 771 mmHg 81%
    18:00 +15°C° 0.1 mm 4 mps 771 mmHg 88%
    19:00 +13°C° 0.1 mm 4 mps 771 mmHg 95%
    20:00 +13°C° 0.1 mm 4 mps 771 mmHg 95%
    21:00 +13°C° 0.1 mm 4 mps 771 mmHg 95%
    22:00 +13°C° 0.1 mm 4 mps 771 mmHg 96%
    23:00 +12°C° 0.1 mm 3 mps 771 mmHg 96%

    6 May, Saturday

    Time Temperature Precipitation Wind Pressure Humidity
    00:00 +12°C° 0.1 mm 3 mps 770 mmHg 97%
    01:00 +11°C° 0.1 mm 3 mps 770 mmHg 97%
    02:00 +11°C° 0.1 mm 3 mps 770 mmHg 97%
    03:00 +10°C° 0.1 mm 3 mps 770 mmHg 97%
    04:00 +10°C° 0.1 mm 3 mps 769 mmHg 97%
    05:00 +10°C° 0 mm 3 mps 770 mmHg 97%
    06:00 +10°C° 0 mm 3 mps 770 mmHg 97%
    07:00 +10°C° 0 mm 3 mps 770 mmHg 96%
    08:00 +13°C° 0 mm 3 mps 770 mmHg 85%
    09:00 +17°C° 0 mm 3 mps 769 mmHg 74%
    10:00 +20°C° 0 mm 3 mps 769 mmHg 62%
    11:00 +21°C° 0 mm 3 mps 768 mmHg 54%
    12:00 +24°C° 0 mm 3 mps 768 mmHg 46%
    13:00 +25°C° 0 mm 3 mps 767 mmHg 37%
    14:00 +25°C° 0 mm 3 mps 766 mmHg 41%
    15:00 +24°C° 0 mm 3 mps 766 mmHg 45%
    16:00 +22°C° 0 mm 3 mps 766 mmHg 49%
    17:00 +21°C° 0 mm 4 mps 766 mmHg 53%
    18:00 +19°C° 0 mm 4 mps 766 mmHg 58%
    19:00 +17°C° 0 mm 5 mps 766 mmHg 62%
    20:00 +16°C° 0 mm 5 mps 766 mmHg 64%
    21:00 +15°C° 0 mm 5 mps 766 mmHg 65%
    22:00 +14°C° 0 mm 5 mps 766 mmHg 66%
    23:00 +14°C° 0 mm 5 mps 765 mmHg 67%
    Show more